KC4WTI Weather Reports


time (UTC)temp
F
wind
direction
speed
knots
gust
knots
rain 1hr
in
rain 24hr
in
rain mn
in
humidity
%
barometer
mb
20260906131445 85 192 0.9 4.3 0.00 0.00 0.00 72 1013.3
20260906131202 84 183 0.9 2.6 0.00 0.00 0.00 73 1013.3
20260906130656 84 199 0.0 2.6 0.00 0.00 0.00 74 1013.2
20260906130155 83 180 0.0 2.6 0.00 0.00 0.00 75 1013.3
20260906125420 82 167 0.9 2.6 0.00 0.00 0.00 78 1013.3
20260906124915 81 167 0.0 2.6 0.00 0.00 0.00 80 1013.2
20260906124634 80 187 0.9 2.6 0.00 0.00 0.00 81 1013.2
20260906123906 79 67 1.7 5.2 0.00 0.00 0.00 82 1013.1
20260906123406 79 126 0.9 5.2 0.00 0.00 0.00 83 1013.1
20260906122905 78 90 0.9 1.7 0.00 0.00 0.00 85 1013.1
20260906122407 77 153 0.0 1.7 0.00 0.00 0.00 87 1013.0
20260906121907 76 153 0.0 1.7 0.00 0.00 0.00 88 1013.0
20260906121405 76 153 0.9 1.7 0.00 0.00 0.00 88 1012.9
20260906121352 76 153 0.0 1.7 0.00 0.00 0.00 89 1012.9
20260906120405 76 153 0.0 0.9 0.00 0.00 0.00 89 1012.8
20260906115903 76 153 0.0 0.9 0.00 0.00 0.00 89 1012.7
20260906115404 76 153 0.0 0.0 0.00 0.00 0.00 88 1012.7
20260906114901 76 153 0.0 0.9 0.00 0.00 0.00 88 1012.6
20260906114358 76 153 0.0 0.9 0.00 0.00 0.00 88 1012.5
20260906114121 76 153 0.0 0.9 0.00 0.00 0.00 88 1012.4
20260906113358 76 153 0.0 0.9 0.00 0.00 0.00 88 1012.3
20260906112858 76 153 0.0 0.9 0.00 0.00 0.00 88 1012.2
20260906112357 76 153 0.0 0.0 0.00 0.00 0.00 88 1012.1
20260906111857 76 153 0.0 0.0 0.00 0.00 0.00 88 1012.0
20260906111628 76 153 0.0 0.0 0.00 0.00 0.00 88 1011.9
20260906110859 76 153 0.0 0.0 0.00 0.00 0.00 87 1011.9
20260906110621 76 153 0.0 0.0 0.00 0.00 0.00 87 1011.8
20260906105858 76 153 0.0 0.0 0.00 0.00 0.00 87 1011.8
20260906105358 76 153 0.0 0.0 0.00 0.00 0.00 87 1011.6
20260906104857 76 153 0.0 0.0 0.00 0.00 0.00 87 1011.5
20260906104358 76 153 0.0 0.0 0.00 0.00 0.00 87 1011.5
20260906103856 76 153 0.0 0.0 0.00 0.00 0.00 87 1011.5
20260906103400 76 153 0.0 0.0 0.00 0.00 0.00 88 1011.6
20260906102857 76 153 0.0 0.9 0.00 0.00 0.00 88 1011.6
20260906102357 76 153 0.0 0.9 0.00 0.00 0.00 87 1011.6
20260906101855 76 153 0.0 0.9 0.00 0.00 0.00 88 1011.6
20260906101352 77 153 0.0 0.9 0.00 0.00 0.00 88 1011.6
20260906100852 77 153 0.0 0.9 0.00 0.00 0.00 87 1011.6
20260906100349 77 153 0.0 0.9 0.00 0.00 0.00 87 1011.6
20260906095849 77 153 0.0 0.9 0.00 0.00 0.00 87 1011.6
20260906095611 77 153 0.0 0.9 0.00 0.00 0.00 87 1011.7
20260906094851 77 153 0.0 0.9 0.00 0.00 0.00 87 1011.7
20260906094351 77 153 0.0 1.7 0.00 0.00 0.00 87 1011.7
20260906093850 77 153 0.9 1.7 0.00 0.00 0.00 87 1011.7
20260906093352 77 153 0.0 1.7 0.00 0.00 0.00 87 1011.7
20260906092849 77 153 0.9 1.7 0.00 0.00 0.00 87 1011.7
20260906092349 77 153 0.0 1.7 0.00 0.00 0.00 86 1011.7
20260906091846 77 153 0.0 0.9 0.00 0.00 0.00 86 1011.5
20260906091607 78 153 0.0 0.9 0.00 0.00 0.00 86 1011.5
20260906090842 78 153 0.0 0.9 0.00 0.00 0.00 86 1011.5
20260906090830 78 153 0.0 0.9 0.00 0.00 0.00 86 1011.5
20260906085842 78 153 0.0 0.9 0.00 0.00 0.00 86 1011.5
20260906085336 78 153 0.0 0.0 0.00 0.00 0.00 85 1011.5
20260906084830 78 153 0.0 0.0 0.00 0.00 0.00 85 1011.5
20260906084322 78 153 0.0 0.0 0.00 0.00 0.00 85 1011.5
20260906083816 78 153 0.0 0.0 0.00 0.00 0.00 85 1011.4
20260906083543 78 153 0.0 0.9 0.00 0.00 0.00 85 1011.4
20260906083023 78 153 0.0 0.9 0.00 0.00 0.00 85 1011.4
20260906082258 78 153 0.0 0.9 0.00 0.00 0.00 85 1011.4
20260906081752 78 153 0.0 0.9 0.00 0.00 0.00 85 1011.4
20260906081246 78 153 0.0 0.9 0.00 0.00 0.00 85 1011.4
20260906080740 78 153 0.0 0.9 0.00 0.00 0.00 86 1011.4
20260906080234 78 153 0.0 0.9 0.00 0.00 0.00 86 1011.5
20260906075728 78 153 0.0 1.7 0.00 0.00 0.00 86 1011.5
20260906075229 78 153 0.0 1.7 0.00 0.00 0.00 87 1011.4
20260906074726 78 153 0.0 0.9 0.00 0.00 0.00 87 1011.4
20260906074223 78 153 0.0 0.9 0.00 0.00 0.00 87 1011.3
20260906073729 78 153 0.0 0.0 0.00 0.00 0.00 87 1011.3
20260906073317 78 153 0.0 0.0 0.00 0.00 0.00 87 1011.3
20260906072445 78 153 0.0 0.0 0.00 0.00 0.00 87 1011.3
20260906072214 78 153 0.0 0.0 0.00 0.00 0.00 87 1011.3
20260906071218 78 153 0.0 0.0 0.00 0.00 0.00 88 1011.3
20260906070715 78 153 0.0 0.9 0.00 0.00 0.00 88 1011.3
20260906070214 78 153 0.0 1.7 0.00 0.00 0.00 88 1011.2
20260906065941 78 153 0.0 1.7 0.00 0.00 0.00 88 1011.2
20260906065215 78 153 0.0 0.9 0.00 0.00 0.00 87 1011.2
20260906064941 78 153 0.0 0.0 0.00 0.00 0.00 87 1011.2
20260906064214 78 153 0.0 0.0 0.00 0.00 0.00 87 1011.2
20260906063712 78 153 0.0 0.0 0.00 0.00 0.00 87 1011.2
20260906063209 78 153 0.0 0.0 0.00 0.00 0.00 86 1011.2
20260906062709 78 153 0.0 0.0 0.00 0.00 0.00 86 1011.3
20260906062202 78 153 0.0 0.0 0.00 0.00 0.00 86 1011.3
20260906061702 78 153 0.0 0.0 0.00 0.00 0.00 85 1011.4
20260906061159 78 153 0.0 0.0 0.00 0.00 0.00 85 1011.5
20260906060658 78 153 0.0 0.0 0.00 0.00 0.00 85 1011.6
20260906060158 78 153 0.0 0.0 0.00 0.00 0.00 86 1011.6
20260906055656 78 153 0.0 0.0 0.00 0.00 0.00 85 1011.6
20260906055156 78 153 0.0 0.9 0.00 0.00 0.00 85 1011.6
20260906054654 79 153 0.0 0.9 0.00 0.00 0.00 85 1011.6
20260906054153 79 153 0.0 0.9 0.00 0.00 0.00 85 1011.7
20260906053928 79 153 0.0 0.9 0.00 0.00 0.00 85 1011.8
20260906053159 79 153 0.0 0.0 0.00 0.00 0.00 86 1011.7
20260906052657 79 153 0.0 0.9 0.00 0.00 0.00 86 1011.7
20260906052157 79 153 0.0 0.9 0.00 0.00 0.00 86 1011.6
20260906051923 79 153 0.0 0.0 0.00 0.00 0.00 85 1011.6
20260906051154 79 153 0.0 0.0 0.00 0.00 0.00 84 1011.6
20260906050651 80 153 0.0 0.0 0.00 0.00 0.00 84 1011.6
20260906050418 80 153 0.0 0.0 0.00 0.00 0.00 84 1011.6
20260906045646 80 153 0.0 0.0 0.00 0.00 0.00 83 1011.6
20260906045140 80 153 0.0 0.0 0.00 0.00 0.00 84 1011.5
20260906045126 80 153 0.0 0.0 0.00 0.00 0.00 84 1011.5
20260906044133 80 153 0.0 0.0 0.00 0.00 0.00 84 1011.5
20260906043632 80 153 0.0 0.9 0.00 0.00 0.00 83 1011.5
20260906043130 80 153 0.0 0.9 0.00 0.00 0.00 83 1011.4
20260906042630 80 153 0.0 0.9 0.00 0.00 0.00 83 1011.5
20260906042128 80 153 0.0 0.9 0.00 0.00 0.00 82 1011.5
20260906041629 80 153 0.0 0.0 0.00 0.00 0.00 82 1011.4
20260906041131 80 153 0.0 0.9 0.00 0.00 0.00 82 1011.5
20260906040848 81 153 0.0 0.9 0.00 0.00 0.00 82 1011.5
20260906040128 81 153 0.0 0.0 0.00 0.00 0.00 82 1011.5
20260906035623 81 153 0.0 0.0 0.00 0.00 0.00 82 1011.5
20260906035124 81 153 0.0 0.0 0.00 0.00 0.00 82 1011.5
20260906034622 81 153 0.0 0.0 0.00 0.00 0.00 80 1011.5
20260906034120 81 153 0.0 0.0 0.00 0.00 0.00 80 1011.5
20260906033619 81 153 0.0 0.0 0.00 0.00 0.00 80 1011.5
20260906033120 82 153 0.0 0.0 0.00 0.00 0.00 80 1011.5
20260906032854 82 153 0.0 0.0 0.00 0.00 0.00 80 1011.7
20260906032116 82 153 0.0 0.9 0.00 0.00 0.00 79 1011.7
20260906031616 82 153 0.0 0.9 0.00 0.00 0.00 79 1011.6
20260906031338 82 153 0.0 0.0 0.00 0.00 0.00 78 1011.6
20260906030603 82 153 0.0 0.0 0.00 0.00 0.00 78 1011.5
20260906030058 83 153 0.0 0.9 0.00 0.00 0.00 77 1011.5
20260906025552 83 153 0.0 1.7 0.00 0.00 0.00 77 1011.5
20260906025316 83 153 0.0 1.7 0.00 0.00 0.00 77 1011.5
20260906024549 83 153 0.0 0.0 0.00 0.00 0.00 77 1011.4
20260906024053 83 153 0.0 0.0 0.00 0.00 0.00 77 1011.4
20260906023552 83 153 0.0 0.0 0.00 0.00 0.00 76 1011.4
20260906023049 84 153 0.0 0.0 0.00 0.00 0.00 76 1011.4
20260906022549 84 153 0.0 0.0 0.00 0.00 0.00 76 1011.3
20260906022314 84 153 0.0 0.0 0.00 0.00 0.00 76 1011.3
20260906021548 84 153 0.0 0.0 0.00 0.00 0.00 74 1011.3
20260906021048 85 153 0.0 0.0 0.00 0.00 0.00 74 1011.2
20260906020546 85 153 0.0 0.9 0.00 0.00 0.00 73 1011.1
20260906020046 85 153 0.0 0.9 0.00 0.00 0.00 73 1011.0
20260906015545 85 153 0.0 0.9 0.00 0.00 0.00 73 1011.0
20260906015044 85 153 0.0 0.0 0.00 0.00 0.00 74 1010.9
20260906014544 86 153 0.0 0.0 0.00 0.00 0.00 72 1010.9
20260906014041 86 153 0.0 0.0 0.00 0.00 0.00 71 1010.8
20260906013545 86 153 0.0 0.9 0.00 0.00 0.00 70 1010.9
20260906013038 87 153 0.0 0.9 0.00 0.00 0.00 69 1010.8
20260906012532 87 153 0.0 0.0 0.00 0.00 0.00 68 1010.8
20260906012252 88 153 0.0 0.0 0.00 0.00 0.00 67 1010.7
20260906011526 88 153 0.0 0.9 0.00 0.00 0.00 67 1010.7
20260906011020 89 153 0.0 0.9 0.00 0.00 0.00 66 1010.6
20260906010742 89 153 0.0 0.0 0.00 0.00 0.00 65 1010.5
20260906010021 89 153 0.0 0.0 0.00 0.00 0.00 65 1010.5
20260906005523 89 153 0.0 0.9 0.00 0.00 0.00 64 1010.5
20260906005244 90 153 0.0 0.9 0.00 0.00 0.00 64 1010.4
20260906004519 91 153 0.0 0.9 0.00 0.00 0.00 63 1010.4
20260906004019 91 153 0.0 0.0 0.00 0.00 0.00 62 1010.4
20260906003737 92 153 0.0 0.9 0.00 0.00 0.00 62 1010.3
20260906003022 92 153 0.0 0.9 0.00 0.00 0.00 60 1010.4
20260906002521 93 153 0.0 0.0 0.00 0.00 0.00 59 1010.4
20260906002241 93 153 0.0 0.9 0.00 0.00 0.00 58 1010.4
20260906001736 94 153 0.0 0.9 0.00 0.00 0.00 58 1010.4
20260906001016 94 153 0.0 0.9 0.00 0.00 0.00 58 1010.4
20260906000515 95 153 0.0 0.9 0.00 0.00 0.00 58 1010.4
20260906000016 96 153 0.0 0.9 0.00 0.00 0.00 55 1010.4
20260905235514 97 153 0.0 0.9 0.00 0.00 0.00 52 1010.4
20260905235008 97 153 0.0 0.9 0.00 0.00 0.00 52 1010.4
20260905234502 97 153 0.0 1.7 0.00 0.00 0.00 49 1010.4
20260905233957 97 153 0.0 1.7 0.00 0.00 0.00 50 1010.4
20260905233457 97 148 0.0 1.7 0.00 0.00 0.00 49 1010.5
20260905232957 96 148 0.9 2.6 0.00 0.00 0.00 50 1010.5
20260905232721 96 148 0.9 2.6 0.00 0.00 0.00 49 1010.5
20260905231957 97 120 0.9 2.6 0.00 0.00 0.00 49 1010.5
20260905231458 97 133 0.9 1.7 0.00 0.00 0.00 49 1010.5
20260905230958 97 133 0.9 1.7 0.00 0.00 0.00 49 1010.5
20260905230455 98 133 0.0 1.7 0.00 0.00 0.00 47 1010.5
20260905225953 98 133 0.9 2.6 0.00 0.00 0.00 48 1010.5
20260905225454 98 133 0.9 2.6 0.00 0.00 0.00 47 1010.5
20260905224954 98 119 0.9 2.6 0.00 0.00 0.00 48 1010.6
20260905224453 98 118 0.9 2.6 0.00 0.00 0.00 48 1010.6
20260905223953 97 90 0.9 2.6 0.00 0.00 0.00 48 1010.6
20260905223454 97 67 1.7 3.5 0.00 0.00 0.00 47 1010.6
20260905223210 97 130 1.7 4.3 0.00 0.00 0.00 45 1010.7
20260905222715 97 136 1.7 4.3 0.00 0.00 0.00 46 1010.6
20260905222430 97 157 1.7 2.6 0.00 0.00 0.00 46 1010.6
20260905221444 97 66 1.7 3.5 0.00 0.00 0.00 45 1010.5
20260905220946 97 113 1.7 3.5 0.00 0.00 0.00 45 1010.7
20260905220442 97 123 1.7 3.5 0.00 0.00 0.00 46 1010.7
20260905215943 97 109 1.7 3.5 0.00 0.00 0.00 46 1010.7
20260905215444 97 84 1.7 5.2 0.00 0.00 0.00 47 1010.8
20260905214942 97 79 1.7 5.2 0.00 0.00 0.00 48 1010.8
20260905214439 96 105 1.7 5.2 0.00 0.00 0.00 46 1010.9
20260905213938 96 103 1.7 5.2 0.00 0.00 0.00 46 1010.8
20260905213437 96 62 1.7 3.5 0.00 0.00 0.00 50 1010.8
20260905212938 95 107 1.7 5.2 0.00 0.00 0.00 52 1010.8
20260905212707 94 5 2.6 6.1 0.00 0.00 0.00 52 1010.8
20260905211936 93 111 3.5 7.8 0.00 0.00 0.00 53 1011.0
20260905211705 93 90 3.5 7.8 0.00 0.00 0.00 52 1011.1
20260905210936 94 117 3.5 7.8 0.00 0.00 0.00 54 1011.1
20260905210434 94 74 3.5 7.0 0.00 0.00 0.00 54 1011.1
20260905205935 95 109 3.5 7.0 0.00 0.00 0.00 53 1011.3
20260905205434 95 111 1.7 6.1 0.00 0.00 0.00 52 1011.3
20260905204935 94 121 1.7 5.2 0.00 0.00 0.00 53 1011.2
20260905204434 94 127 1.7 5.2 0.00 0.00 0.00 52 1011.3
20260905203935 94 94 2.6 6.1 0.00 0.00 0.00 53 1011.3
20260905203435 95 123 2.6 7.0 0.00 0.00 0.00 52 1011.4
20260905202933 95 101 2.6 7.8 0.00 0.00 0.00 51 1011.5
20260905202433 97 73 3.5 7.8 0.00 0.00 0.00 50 1011.6
20260905201934 98 343 4.3 12.2 0.00 0.00 0.00 49 1011.6
20260905201433 100 200 3.5 12.2 0.00 0.00 0.00 46 1011.7
20260905200934 103 75 0.9 4.3 0.00 0.00 0.00 40 1011.7
20260905200434 103 232 0.9 4.3 0.00 0.00 0.00 41 1011.5
20260905195934 102 171 1.7 3.5 0.00 0.00 0.00 43 1011.6
20260905195434 101 38 1.7 3.5 0.00 0.00 0.00 43 1011.7
20260905194934 100 198 1.7 4.3 0.00 0.00 0.00 44 1011.8
20260905194435 99 81 2.6 5.2 0.00 0.00 0.00 45 1011.9
20260905193932 98 113 2.6 7.0 0.00 0.00 0.00 46 1012.0
20260905193430 98 86 2.6 7.0 0.00 0.00 0.00 46 1012.1
20260905192932 98 63 2.6 6.1 0.00 0.00 0.00 45 1012.1
20260905192429 100 99 2.6 6.1 0.00 0.00 0.00 44 1012.2
20260905191930 100 105 2.6 6.1 0.00 0.00 0.00 43 1012.2
20260905191429 100 83 1.7 4.3 0.00 0.00 0.00 43 1012.3
20260905190930 100 167 1.7 5.2 0.00 0.00 0.00 43 1012.3
20260905190429 100 90 1.7 5.2 0.00 0.00 0.00 42 1012.4
20260905190415 101 42 2.6 6.1 0.00 0.00 0.00 42 1012.5
20260905185428 101 74 1.7 7.0 0.00 0.00 0.00 42 1012.4
20260905184931 102 80 1.7 7.0 0.00 0.00 0.00 41 1012.4
20260905184432 102 36 2.6 7.0 0.00 0.00 0.00 40 1012.6
20260905183926 102 17 2.6 7.0 0.00 0.00 0.00 45 1012.5
20260905183419 102 304 2.6 7.0 0.00 0.00 0.00 41 1012.5
20260905183130 102 327 1.7 5.2 0.00 0.00 0.00 42 1012.6
20260905182633 102 40 1.7 4.3 0.00 0.00 0.00 43 1012.7
20260905181911 102 92 1.7 4.3 0.00 0.00 0.00 44 1012.7
20260905181413 101 317 2.6 7.0 0.00 0.00 0.00 43 1012.7
20260905180912 100 108 3.5 7.8 0.00 0.00 0.00 42 1012.8
20260905180408 100 86 2.6 7.8 0.00 0.00 0.00 43 1012.8
20260905175908 101 83 1.7 7.8 0.00 0.00 0.00 43 1012.9
20260905175406 101 19 2.6 7.8 0.00 0.00 0.00 41 1013.0
20260905174906 101 77 2.6 6.1 0.00 0.00 0.00 44 1013.0
20260905174404 102 59 2.6 5.2 0.00 0.00 0.00 43 1013.1
20260905173905 101 23 2.6 6.1 0.00 0.00 0.00 46 1013.1
20260905173404 101 0 2.6 6.1 0.00 0.00 0.00 44 1013.1
20260905173127 102 122 2.6 9.6 0.00 0.00 0.00 42 1013.1
20260905172404 102 355 2.6 9.6 0.00 0.00 0.00 44 1013.0
20260905172135 101 260 1.7 7.8 0.00 0.00 0.00 44 1013.2
20260905171405 102 55 1.7 7.0 0.00 0.00 0.00 44 1013.3
20260905170903 102 234 1.7 7.0 0.00 0.00 0.00 45 1013.4
20260905170405 101 66 1.7 5.2 0.00 0.00 0.00 46 1013.5
20260905170117 100 60 2.6 5.2 0.00 0.00 0.00 48 1013.6
20260905165358 100 78 2.6 5.2 0.00 0.00 0.00 46 1013.6
20260905164901 99 34 2.6 5.2 0.00 0.00 0.00 47 1013.6
20260905164404 99 94 2.6 7.0 0.00 0.00 0.00 51 1013.7
20260905163858 98 71 2.6 7.0 0.00 0.00 0.00 48 1013.8
20260905163357 99 67 2.6 7.0 0.00 0.00 0.00 50 1013.8
20260905162856 99 24 1.7 7.0 0.00 0.00 0.00 50 1013.8
20260905162356 99 82 1.7 5.2 0.00 0.00 0.00 49 1013.9
20260905161856 100 22 1.7 3.5 0.00 0.00 0.00 50 1013.9
20260905161356 99 340 1.7 4.3 0.00 0.00 0.00 51 1014.0
20260905160855 98 86 1.7 4.3 0.00 0.00 0.00 53 1014.1
20260905160620 99 104 1.7 5.2 0.00 0.00 0.00 50 1014.1
20260905155854 98 348 1.7 5.2 0.00 0.00 0.00 54 1014.1
20260905155358 98 69 0.9 3.5 0.00 0.00 0.00 51 1014.1
20260905154854 99 329 1.7 4.3 0.00 0.00 0.00 52 1014.2
20260905154355 98 303 1.7 4.3 0.00 0.00 0.00 53 1014.1
20260905154117 97 73 1.7 5.2 0.00 0.00 0.00 52 1014.2
20260905153348 96 19 1.7 5.2 0.00 0.00 0.00 54 1014.1
20260905152846 96 25 1.7 4.3 0.00 0.00 0.00 53 1014.1
20260905152346 95 329 1.7 3.5 0.00 0.00 0.00 55 1014.0
20260905152105 95 46 1.7 3.5 0.00 0.00 0.00 53 1014.0
20260905151343 95 72 1.7 3.5 0.00 0.00 0.00 54 1014.1
20260905151102 95 23 1.7 3.5 0.00 0.00 0.00 54 1014.1
20260905150829 95 38 1.7 2.6 0.00 0.00 0.00 56 1014.1
20260905145843 94 54 0.9 3.5 0.00 0.00 0.00 58 1014.2
20260905145344 93 30 0.9 3.5 0.00 0.00 0.00 60 1014.1
20260905144842 93 42 1.7 2.6 0.00 0.00 0.00 58 1014.1
20260905144340 94 38 0.9 2.6 0.00 0.00 0.00 58 1014.1
20260905143839 94 274 0.9 2.6 0.00 0.00 0.00 59 1014.1
20260905143557 94 346 1.7 2.6 0.00 0.00 0.00 60 1014.1
20260905143324 93 267 1.7 3.5 0.00 0.00 0.00 60 1014.1
20260905142336 93 254 1.7 3.5 0.00 0.00 0.00 59 1014.1
20260905141836 94 269 0.9 3.5 0.00 0.00 0.00 58 1014.1
20260905141337 94 342 0.9 3.5 0.00 0.00 0.00 61 1014.1
20260905140833 93 304 0.9 3.5 0.00 0.00 0.00 59 1014.1
20260905140333 92 238 0.9 2.6 0.00 0.00 0.00 61 1014.1
20260905140103 92 307 0.0 2.6 0.00 0.00 0.00 63 1014.0
20260905135327 90 213 0.9 2.6 0.00 0.00 0.00 65 1014.0
20260905134820 90 221 0.0 1.7 0.00 0.00 0.00 64 1014.0
20260905134536 90 194 0.0 1.7 0.00 0.00 0.00 67 1014.0
20260905133809 88 200 0.9 1.7 0.00 0.00 0.00 69 1013.9
20260905133527 87 172 0.9 2.6 0.00 0.00 0.00 70 1014.0
20260905132805 87 270 0.9 2.6 0.00 0.00 0.00 69 1013.9
20260905132306 87 226 0.9 2.6 0.00 0.00 0.00 69 1013.9
20260905131803 86 207 0.9 2.6 0.00 0.00 0.00 72 1013.9